Location: Oroua River
(40.4333°S, 175.4333°E)
Time: 14:55:51
(UTC+00:00)

Cosmos 2016 Rocket - Pass Details

Date: 03 February 2023
Orbit: 946 x 1001 km, 83.0° (Epoch: 22 March)

Event Time Altitude Azimuth Distance (km) Brightness Sun altitude
Exits shadow 14:40:55 63° 316° (NW) 1,063 3.8 -25.7°
Maximum altitude 14:41:48 73° 262° (W) 999 3.9 -25.6°
Drops below altitude 10° 14:47:59 10° 177° (S) 2,700 7.1 -24.9°
Sets 14:50:30 0° 174° (S) 3,652 7.9 -24.6°
